Location: Vinland
(47.7731°N, 122.6974°W)
Time: 22:00:42
(UTC+00:00)

Tiros 1 - Pass Details

Date: 28 March 2023
Orbit: 627 x 660 km, 48.4° (Epoch: 28 May)

Event Time Altitude Azimuth Distance (km) Brightness Sun altitude
Exits shadow 12:58:16 12° 230° (SW) 1,935 9.0 -10.6°
Maximum altitude 13:02:34 54° 155° (SSE) 803 7.7 -9.9°
Drops below altitude 10° 13:07:14 10° 79° (ENE) 2,078 11.4 -9.2°
Sets 13:09:38 0° 74° (ENE) 2,990 13.1 -8.8°
